Tracking 21612 objects as of 19-Oct-2020
HD Live streaming from Space Station
objects crossing your sky now

ARIANE 5 R/B

Track ARIANE 5 R/B now!


NORAD ID: 42816
Int'l Code: 2017-040C
Perigee: 262.7 km
Apogee: 35,308.4 km
Inclination: 2.8 °
Period: 622.7 minutes
Semi major axis: 24156 km
RCS: Unknown
Launch date: June 28, 2017
Source: France (FR)
Launch site: FRENCH GUIANA (FRGUI)

Note: This is a ROCKET BODY
aabbcc
Your satellite tracking list
Your tracking list is empty




NASA's NSSDC Master Catalog

Two Line Element Set (TLE):
1 42816U 17040C   20292.48950840 +.00002153 +00000-0 +71355-3 0  9991
2 42816 002.8033 289.3544 7253875 091.4608 344.4542 02.31233523027738
Source of the keplerian elements: AFSPC